Weather History for New River MCAS, NC

Change the Weather History Date:

Wednesday, April 3, 2013

  Actual Average Record
Temperature  
Mean Temperature 52 °F -  
Max Temperature 57 °F 69 °F 84 °F (2006)
Min Temperature 46 °F 47 °F 33 °F (2011)
Degree Days  
Heating Degree Days 14    
Growing Degree Days 2 (Base 50)    
Moisture  
Dew Point 32 °F    
Average Humidity 52    
Maximum Humidity 74    
Minimum Humidity 29    
Precipitation  
Precipitation 0.00 in - - ()
Sea Level Pressure  
Sea Level Pressure 30.25 in    
Wind  
Wind Speed 7 mph (NE)    
Max Wind Speed 12 mph    
Max Gust Speed -    
Visibility 10 miles    
Events Rain    
Averages and records for this station are not official NWS values.
T = Trace of Precipitation, MM = Missing Value Source: NWS Daily Summary

Daily Weather History Graph

Daily Weather History Graph

Search for Another Location

Airport:

Trip Planner

Search our weather history database for the weather conditions in past years. The results will help you decide how hot, cold, wet, or windy it might be!

Date:

Astronomy

Apr. 03, 2013 Rise Set
Actual Time 6:53 AM EDT 7:32 PM EDT
Civil Twilight 6:28 AM EDT 7:58 PM EDT
Nautical Twilight 5:58 AM EDT 8:28 PM EDT
Astronomical Twilight 5:27 AM EDT 8:58 PM EDT
Moon 2:17 AM EDT (4/3) 12:57 PM EDT (4/3)
Length of Visible Light 13h 29m
Length of Day
12h 38m
Last Quarter, 45% of the Moon is Illuminated
Apr 3
Last Quarter
Apr 10
New
Apr 18
First Quarter
Apr 25
Full
May 2
Last Quarter

Hourly Weather History & Observations

Time (EDT) Temp. Windchill Dew Point Humidity Pressure Visibility Wind Dir Wind Speed Gust Speed Precip Events Conditions
5:56 AM 48.0 °F - 39.9 °F 74% 30.17 in 10.0 mi North 5.8 mph - N/A   Overcast
6:56 AM 48.0 °F - 37.0 °F 66% 30.19 in 10.0 mi North 8.1 mph - N/A   Overcast
7:56 AM 48.0 °F - 32.0 °F 54% 30.22 in 10.0 mi North 10.4 mph - N/A   Overcast
8:56 AM 46.9 °F - 28.0 °F 48% 30.25 in 10.0 mi North 11.5 mph - N/A   Overcast
9:56 AM 46.0 °F 40.6 °F 32.0 °F 58% 30.27 in 10.0 mi NNE 11.5 mph - 0.00 in Rain Light Rain
10:56 AM 48.0 °F - 33.1 °F 56% 30.27 in 10.0 mi North 6.9 mph - 0.00 in Rain Light Rain
11:56 AM 48.9 °F - 30.0 °F 48% 30.27 in 10.0 mi NE 10.4 mph - 0.00 in Rain Light Rain
12:56 PM 50.0 °F - 28.9 °F 44% 30.28 in 10.0 mi NE 9.2 mph - 0.00 in Rain Light Rain
1:56 PM 52.0 °F - 27.0 °F 38% 30.25 in 10.0 mi NNE 6.9 mph - 0.00 in   Overcast
2:56 PM 55.0 °F - 26.1 °F 33% 30.24 in 7.0 mi Variable 5.8 mph - N/A   Scattered Clouds
3:56 PM 55.9 °F - 26.1 °F 32% 30.22 in 10.0 mi Calm Calm - N/A   Mostly Cloudy
4:56 PM 57.0 °F - 25.0 °F 29% 30.22 in 10.0 mi ESE 4.6 mph - N/A   Mostly Cloudy
5:56 PM 57.0 °F - 26.1 °F 30% 30.24 in 10.0 mi Calm Calm - N/A   Scattered Clouds
6:56 PM 52.0 °F - 34.0 °F 50% 30.25 in 10.0 mi SSE 8.1 mph - N/A   Mostly Cloudy
7:56 PM 48.9 °F - 35.1 °F 59% 30.25 in 10.0 mi South 4.6 mph - N/A   Mostly Cloudy
8:56 PM 48.0 °F - 36.0 °F 63% 30.28 in 10.0 mi SSE 3.5 mph - N/A   Mostly Cloudy
9:56 PM 46.9 °F - 37.9 °F 71% 30.31 in 10.0 mi Calm Calm - N/A   Mostly Cloudy
10:56 PM 48.0 °F - 37.0 °F 66% 30.30 in 10.0 mi ENE 5.8 mph - N/A   Clear
11:56 PM 46.9 °F - 35.1 °F 63% 30.32 in 10.0 mi ENE 4.6 mph - N/A   Clear